Change the Weather History Date:

Tuesday, October 9, 2012

  Actual Average Record
Temperature  
Mean Temperature 39 °F -  
Max Temperature 49 °F - - ()
Min Temperature 29 °F - - ()
Degree Days  
Heating Degree Days 26    
Moisture  
Dew Point 33 °F    
Average Humidity 86    
Maximum Humidity 97    
Minimum Humidity 55    
Precipitation  
Precipitation 0.00 in - - ()
Sea Level Pressure  
Sea Level Pressure 30.16 in    
Wind  
Wind Speed 6 mph ()    
Max Wind Speed 17 mph    
Max Gust Speed -    
T = Trace of Precipitation, MM = Missing Value Source: Averaged Metar Reports

Daily Weather History Graph

Daily Weather History Graph

Search for Another Location

Airport or City:

Trip Planner

Search our weather history database for the weather conditions in past years. The results will help you decide how hot, cold, wet, or windy it might be!

Date:

Astronomy

Oct. 09, 2012 Rise Set
Actual Time 8:00 AM MDT 7:03 PM MDT
Civil Twilight 7:26 AM MDT 7:37 PM MDT
Nautical Twilight 6:48 AM MDT 8:15 PM MDT
Astronomical Twilight 6:09 AM MDT 8:54 PM MDT
Moon 1:00 AM MDT (10/9) 4:09 PM MDT (10/9)
Length of Visible Light 12h 10m
Length of Day
11h 03m
Last Quarter, 36% of the Moon is Illuminated
Oct 9
Last Quarter
Oct 15
New
Oct 21
First Quarter
Oct 29
Full
Nov 6
Last Quarter

Hourly Weather History & Observations

Time (MDT) Temp. Windchill Dew Point Humidity Pressure Visibility Wind Dir Wind Speed Gust Speed Precip Events Conditions
12:00 AM 32 °F - 31 °F 92% 30.16 in - East 3.5 mph - -  
12:00 AM 32.0 °F 28.7 °F 30.6 °F 94% 30.16 in - East 3.5 mph - N/A   Unknown
1:00 AM 31.8 °F - 30.4 °F 94% 30.16 in - ESE 1.2 mph - N/A   Unknown
2:00 AM 31.1 °F - 29.8 °F 95% 30.16 in - East 2.3 mph - N/A   Unknown
3:00 AM 30.0 °F 26.5 °F 28.8 °F 95% 30.16 in - East 3.5 mph - N/A   Unknown
4:00 AM 30.0 °F 26.5 °F 29.1 °F 96% 30.16 in - ENE 3.5 mph - N/A   Unknown
5:00 AM 30.4 °F - 29.3 °F 96% 30.16 in - East 2.3 mph - N/A   Unknown
6:00 AM 30 °F - 29 °F 93% 30.17 in - ENE 1.2 mph - -  
6:00 AM 29.8 °F - 28.8 °F 96% 30.17 in - ENE 1.2 mph - N/A   Unknown
7:00 AM 29.5 °F - 28.4 °F 96% 30.19 in - East 1.2 mph - N/A   Unknown
8:00 AM 31.3 °F 22.1 °F 30.4 °F 96% 30.18 in - SW 11.5 mph - N/A   Unknown
9:00 AM 34.2 °F 25.7 °F 33.3 °F 97% 30.19 in - WSW 11.5 mph - N/A   Unknown
10:00 AM 34.7 °F 25.5 °F 33.6 °F 96% 30.20 in - WSW 13.8 mph - N/A   Unknown
11:00 AM 35.2 °F 26.2 °F 33.8 °F 94% 30.22 in - WSW 13.8 mph - N/A   Unknown
12:00 PM 36 °F - 34 °F 88% 30.21 in - WSW 16.1 mph - -  
12:00 PM 35.8 °F 26.1 °F 33.8 °F 92% 30.21 in - WSW 16.1 mph - N/A   Unknown
1:00 PM 39.4 °F 30.4 °F 35.8 °F 87% 30.19 in - WSW 17.3 mph - N/A   Unknown
2:00 PM 40.1 °F 32.7 °F 36.1 °F 86% 30.18 in - WSW 12.7 mph - N/A   Unknown
3:00 PM 44.2 °F 37.3 °F 37.2 °F 76% 30.14 in - WSW 15.0 mph - N/A   Unknown
4:00 PM 46.2 °F 40.5 °F 36.9 °F 70% 30.14 in - WSW 12.7 mph - N/A   Unknown
5:00 PM 49.5 °F - 36.0 °F 60% 30.12 in - WSW 10.4 mph - N/A   Unknown
6:00 PM 48 °F - 37 °F 55% 30.12 in - WSW 11.5 mph - -  
6:00 PM 47.7 °F - 36.9 °F 66% 30.12 in - WSW 11.5 mph - N/A   Unknown
7:00 PM 42.3 °F 37.3 °F 35.1 °F 76% 30.13 in - West 8.1 mph - N/A   Unknown
8:00 PM 39.9 °F 33.9 °F 34.5 °F 81% 30.13 in - West 9.2 mph - N/A   Unknown
9:00 PM 38.1 °F 32.3 °F 33.4 °F 83% 30.12 in - WSW 8.1 mph - N/A   Unknown
10:00 PM 37.6 °F 29.1 °F 33.4 °F 85% 30.10 in - WSW 13.8 mph - N/A   Unknown
11:00 PM 36.3 °F 27.5 °F 32.9 °F 87% 30.10 in - WSW 13.8 mph - N/A   Unknown